Location: Pitton
(51.0667°N, 1.7000°W)
Time: 13:07:21
(UTC+00:00)

SL-8 R/B - Pass Details

Date: 17 September 2019
Orbit: 657 x 667 km, 48.4° (Epoch: 16 October)

Event Time Altitude Azimuth Distance (km) Brightness Sun altitude
Rises 20:10:25 0° 252° (WSW) 2,983 7.8 -17.9°
Reaches altitude 10° 20:12:47 10° 249° (WSW) 2,073 6.8 -18.2°
Maximum altitude 20:17:29 59° 170° (S) 762 3.7 -18.8°
Enters shadow 20:18:53 41° 113° (ESE) 955 4.0 -19.0°
